EW5546 Weather Reports


time (UTC)temp
C
wind
direction
speed
KPH
gust
KPH
rain 1hr
cm
rain 24hr
cm
rain mn
cm
humidity
%
barometer
mb
20260901081023 20 250 3.2 3.2 0.00 0.00 0.00 57 1013.0
20260901080023 20 238 3.2 6.4 0.00 0.00 0.00 58 1013.0
20260901075022 -17 215 3.2 4.8 0.00 0.00 0.00 1013.0
20260901074025 -17 223 0.0 3.2 0.00 0.00 0.00 1013.0
20260901073023 20 203 1.6 3.2 0.00 0.00 0.00 61 1013.0
20260901072023 20 244 1.6 3.2 0.00 0.00 0.00 61 1013.0
20260901071023 20 239 1.6 4.8 0.00 0.00 0.00 63 1013.0
20260901070032 19 215 3.2 4.8 0.00 0.00 0.00 63 1013.0
20260901065105 19 217 1.6 3.2 0.00 0.00 0.00 65 1012.5
20260901064023 19 217 1.6 3.2 0.00 0.00 0.00 65 1012.0
20260901063023 19 171 1.6 3.2 0.00 0.00 0.00 66 1012.0
20260901062022 19 206 1.6 4.8 0.00 0.00 0.00 67 1012.0
20260901061023 18 0.0 0.0 0.00 0.00 0.00 68 1012.0
20260901060026 18 222 1.6 1.6 0.00 0.00 0.00 69 1012.0
20260901055016 18 240 1.6 4.8 0.00 0.00 0.00 70 1012.0
20260901054023 18 242 1.6 3.2 0.00 0.00 0.00 71 1012.0
20260901053024 18 222 1.6 1.6 0.00 0.00 0.00 72 1012.0
20260901052044 18 203 1.6 4.8 0.00 0.00 0.00 72 1012.0
20260901051103 17 203 0.0 1.6 0.00 0.00 0.00 73 1012.0
20260901050044 17 0.0 0.0 0.00 0.00 0.00 74 1012.0
20260901045026 17 0.0 0.0 0.00 0.00 0.00 74 1012.0
20260901044025 17 177 3.2 4.8 0.00 0.00 0.00 74 1012.0
20260901043020 17 217 1.6 1.6 0.00 0.00 0.00 74 1012.0
20260901042045 18 248 0.0 3.2 0.00 0.00 0.00 74 1011.5
20260901041023 18 225 0.0 1.6 0.00 0.00 0.00 75 1011.0
20260901040025 18 0.0 0.0 0.00 0.00 0.00 75 1011.0
20260901035023 18 225 0.0 1.6 0.00 0.00 0.00 75 1011.0
20260901034017 18 203 0.0 3.2 0.00 0.00 0.00 76 1011.0
20260901033018 18 225 0.0 4.8 0.00 0.00 0.00 76 1011.0
20260901032024 18 0.0 0.0 0.00 0.00 0.00 77 1011.0
20260901031023 18 0.0 0.0 0.00 0.00 0.00 77 1011.0
20260901030024 18 235 0.0 1.6 0.00 0.00 0.00 77 1011.0
20260901025018 18 0.0 0.0 0.00 0.00 0.00 78 1011.0
20260901024023 18 293 0.0 1.6 0.00 0.00 0.00 78 1011.0
20260901023024 18 248 0.0 1.6 0.00 0.00 0.00 78 1011.0
20260901022016 18 0.0 0.0 0.00 0.00 0.00 79 1011.0
20260901021015 18 0.0 0.0 0.00 0.00 0.00 79 1011.0
20260901020023 18 0.0 0.0 0.00 0.00 0.00 79 1011.0
20260901015015 18 0.0 0.0 0.00 0.00 0.00 80 1011.0
20260901014022 18 225 0.0 1.6 0.00 0.00 0.00 80 1011.0
20260901013022 18 225 0.0 1.6 0.00 0.00 0.00 80 1011.0
20260901012022 18 0.0 0.0 0.00 0.00 0.00 80 1011.0
20260901011018 18 0.0 0.0 0.00 0.00 0.00 80 1011.0
20260901010054 18 248 0.0 1.6 0.00 0.00 0.00 80 1011.0
20260901005026 18 0.0 0.0 0.00 0.00 0.00 80 1011.0
20260901004022 18 0.0 0.0 0.00 0.00 0.00 80 1011.0
20260901003022 18 0.0 0.0 0.00 0.00 0.00 80 1012.0
20260901002022 18 0.0 0.0 0.00 0.00 0.00 80 1011.5
20260901001018 18 0.0 0.0 0.00 0.00 0.00 80 1011.8
20260901000044 18 0.0 0.0 0.00 0.00 0.00 80 1012.0
20260831235021 18 0.0 0.0 0.00 0.00 0.00 80 1012.0
20260831234042 18 0.0 0.0 0.00 0.00 0.00 81 1012.0
20260831233023 18 0.0 0.0 0.00 0.00 0.00 80 1012.0
20260831232023 18 0.0 0.0 0.00 0.00 0.00 80 1012.0
20260831231021 18 0.0 0.0 0.00 0.00 0.00 80 1012.0
20260831230020 18 0.0 0.0 0.00 0.00 0.00 80 1012.0
20260831225023 18 0.0 0.0 0.00 0.00 0.00 80 1012.0
20260831224020 18 0.0 0.0 0.00 0.00 0.00 80 1012.0
20260831223026 18 0.0 0.0 0.00 0.00 0.00 80 1012.0
20260831222023 18 0.0 0.0 0.00 0.00 0.00 80 1012.0
20260831221017 19 0.0 0.0 0.00 0.00 0.00 80 1012.0
20260831220043 19 0.0 0.0 0.00 0.00 0.00 80 1013.0
20260831215020 19 203 1.6 3.2 0.00 0.00 0.00 80 1012.4
20260831214015 19 0.0 0.0 0.00 0.00 0.00 80 1012.0
20260831213025 19 0.0 0.0 0.00 0.00 0.00 80 1012.0
20260831212023 19 0.0 0.0 0.00 0.00 0.00 80 1012.5
20260831211042 19 0.0 0.0 0.00 0.00 0.00 80 1013.0
20260831210022 19 0.0 0.0 0.00 0.00 0.00 79 1013.0
20260831205017 19 0.0 0.0 0.00 0.00 0.00 79 1013.0
20260831204023 19 0.0 0.0 0.00 0.00 0.00 79 1013.0
20260831203022 19 0.0 0.0 0.00 0.00 0.00 79 1013.0
20260831202023 19 0.0 0.0 0.00 0.00 0.00 79 1013.0
20260831201022 19 0.0 0.0 0.00 0.00 0.00 78 1013.0
20260831200028 19 0.0 0.0 0.00 0.00 0.00 78 1012.0
20260831195022 19 0.0 0.0 0.00 0.00 0.00 78 1012.0
20260831194039 19 0.0 0.0 0.00 0.00 0.00 77 1012.0
20260831193024 19 0.0 0.0 0.00 0.00 0.00 77 1012.0
20260831192015 19 0.0 0.0 0.00 0.00 0.00 77 1012.0
20260831191037 20 0.0 0.0 0.00 0.00 0.00 76 1012.0
20260831190043 20 0.0 0.0 0.00 0.00 0.00 76 1012.0
20260831185023 20 0.0 0.0 0.00 0.00 0.00 76 1012.0
20260831184022 20 0.0 0.0 0.00 0.00 0.00 75 1012.0
20260831183023 20 0.0 0.0 0.00 0.00 0.00 74 1012.0
20260831182021 20 0.0 0.0 0.00 0.00 0.00 74 1012.0
20260831181044 20 0.0 0.0 0.00 0.00 0.00 74 1012.0
20260831180024 20 0.0 0.0 0.00 0.00 0.00 73 1012.0
20260831175023 20 0.0 0.0 0.00 0.00 0.00 73 1012.0
20260831174023 20 0.0 0.0 0.00 0.00 0.00 73 1012.0
20260831173025 20 0.0 0.0 0.00 0.00 0.00 72 1011.0
20260831172023 20 0.0 0.0 0.00 0.00 0.00 72 1011.0
20260831171046 20 0.0 0.0 0.00 0.00 0.00 71 1011.0
20260831170015 20 0.0 0.0 0.00 0.00 0.00 71 1012.0
20260831165023 21 0.0 0.0 0.00 0.00 0.00 71 1011.7
20260831164105 21 0.0 0.0 0.00 0.00 0.00 71 1011.0
20260831163024 21 0.0 0.0 0.00 0.00 0.00 71 1011.0
20260831162022 20 0.0 0.0 0.00 0.00 0.00 71 1011.0
20260831161024 20 0.0 0.0 0.00 0.00 0.00 71 1011.0
20260831160022 20 0.0 0.0 0.00 0.00 0.00 70 1011.0
20260831155019 20 0.0 0.0 0.00 0.00 0.00 71 1011.0
20260831154026 20 0.0 0.0 0.00 0.00 0.00 70 1011.0
20260831153100 20 0.0 0.0 0.00 0.00 0.00 70 1012.0
20260831152024 21 0.0 0.0 0.00 0.00 0.00 69 1012.0
20260831151043 21 0.0 0.0 0.00 0.00 0.00 68 1012.0
20260831150023 21 0.0 0.0 0.00 0.00 0.00 67 1012.0
20260831145021 21 293 0.0 1.6 0.00 0.00 0.00 67 1012.0
20260831144047 21 0.0 0.0 0.00 0.00 0.00 66 1012.0
20260831143030 21 248 0.0 1.6 0.00 0.00 0.00 65 1012.0
20260831142024 21 248 0.0 1.6 0.00 0.00 0.00 66 1012.0
20260831141023 21 0.0 0.0 0.00 0.00 0.00 66 1012.0
20260831140016 21 0.0 0.0 0.00 0.00 0.00 65 1013.0
20260831135028 21 0.0 0.0 0.00 0.00 0.00 64 1012.7
20260831134027 21 0.0 0.0 0.00 0.00 0.00 63 1012.0
20260831133023 21 0.0 0.0 0.00 0.00 0.00 61 1013.0
20260831132017 21 225 0.0 1.6 0.00 0.00 0.00 59 1012.9
20260831131027 21 203 0.0 1.6 0.00 0.00 0.00 57 1012.9
20260831130033 22 304 0.0 1.6 0.00 0.00 0.00 54 1013.0
20260831125035 22 180 0.0 1.6 0.00 0.00 0.00 52 1013.0
20260831124022 23 196 1.6 3.2 0.00 0.00 0.00 49 1013.0
20260831123043 23 225 1.6 1.6 0.00 0.00 0.00 46 1012.0
20260831122019 24 205 1.6 3.2 0.00 0.00 0.00 43 1011.8
20260831121024 25 229 1.6 3.2 0.00 0.00 0.00 42 1011.0
20260831120022 25 236 1.6 3.2 0.00 0.00 0.00 42 1012.0
20260831115045 25 225 0.0 3.2 0.00 0.00 0.00 42 1012.0
20260831114043 25 0.0 0.0 0.00 0.00 0.00 42 1012.0
20260831113023 25 245 1.6 3.2 0.00 0.00 0.00 42 1012.0
20260831112021 25 259 1.6 3.2 0.00 0.00 0.00 42 1012.0
20260831111023 25 203 0.0 3.2 0.00 0.00 0.00 42 1012.0
20260831110022 25 260 1.6 3.2 0.00 0.00 0.00 42 1012.0
20260831105022 25 277 1.6 1.6 0.00 0.00 0.00 42 1012.0
20260831104023 25 208 1.6 1.6 0.00 0.00 0.00 42 1012.0
20260831103022 25 224 1.6 3.2 0.00 0.00 0.00 42 1012.0
20260831102026 25 211 1.6 3.2 0.00 0.00 0.00 42 1012.0
20260831101025 25 214 1.6 4.8 0.00 0.00 0.00 42 1012.0
20260831100019 26 226 3.2 3.2 0.00 0.00 0.00 43 1012.0
20260831095025 26 68 1.6 4.8 0.00 0.00 0.00 43 1012.0
20260831094025 25 248 1.6 1.6 0.00 0.00 0.00 45 1012.0
20260831093042 25 218 1.6 3.2 0.00 0.00 0.00 44 1012.0
20260831092044 25 286 1.6 1.6 0.00 0.00 0.00 45 1012.0
20260831091015 25 46 1.6 3.2 0.00 0.00 0.00 45 1012.0
20260831085025 24 209 0.0 1.6 0.00 0.00 0.00 46 1012.0
20260831084100 24 273 0.0 1.6 0.00 0.00 0.00 47 1012.0
20260831083017 24 58 1.6 3.2 0.00 0.00 0.00 48 1012.0
20260831082043 23 0.0 0.0 0.00 0.00 0.00 48 1012.0